Tracking 35036 objects as of 15-Aug-2026
HD Live streaming from Space Station
objects crossing your sky now

SL-4 R/B


SL-4 R/B is no longer on orbit


NORAD ID: 37727
Int'l Code: 2011-028B
Launch date: June 27, 2011
Source: Commonwealth of Independent States (former USSR) (CIS)
Launch site: PLESETSK MISSILE AND SPACE COMPLEX (PKMTR)
Decay date: 2011-07-01

Note: This is a ROCKET BODY
Your satellite tracking list
Your tracking list is empty




NASA's NSSDC Master Catalog

Two Line Element Set (TLE):
1 37727U 11028B   11182.34086325  .13970154 -10972-5  19917-3 0  9997
2 37727 081.3843 175.2130 0012422 069.9030 290.4813 16.48237811   606
Source of the keplerian elements: AFSPC